Weather in Kadnoye

Russia / Tula Oblast     53°18′35″N   37°55′19″E
temp.,
°C
wind,
m/s
gust,
m/s
humid.,
%
clouds,
%
prec.,
mm/h
press.,
hPa
HPBL,
m
27 september, mon
mon2700:00+8nnw81489100 0.4 1012875
03:00+9n61193100 0.6 1014683
06:00+9n6109296 0.1 1016586
09:00+9n6108967 0.3 1018731
12:00+11n687370 0.3 10191059
15:00+10n6876100 0.4 1020860
18:00+10n61083100 0.1 1020708
21:00+9n61088100 0.3 1021608
28 september, tue
tue2800:00+9nne5988100 0.1 1021608
03:00+8nne5990100 0.6 1022612
06:00+7ne5888100 0.3 1024834
09:00+6ne5887100 0.3 1026847
12:00+6ne5789100 0.1 1027926
15:00+7ne5775100 0.1 10291102
18:00+6ne4875100 0.0 1030801
21:00+5nne377587 0.0 1032259
29 september, wed
wed2900:00+3nne36835 0.0 1033128
03:00+2nne34840 0.0 103383
06:00+2nne35855 0.0 1034110
09:00+5nne46715 0.0 1035318
12:00+9ne455439 0.0 1034937
15:00+10nne445199 0.0 10341047
18:00+7ne336385 0.0 103451
21:00+5ne22695 0.0 103528
30 september, thu
thu3000:00+4ne22735 0.0 103610
03:00+3ne11750 0.0 103610
06:00+3nne11761 0.0 103710
09:00+6ne116452 0.0 1037200
12:00+10ese115262 0.0 1037759
15:00+11sse00475 0.0 10361015
18:00+9e00581 0.0 103610
21:00+7s00630 0.0 103610
1 october, fri
fri100:00+6ssw11671 0.0 103710
03:00+5wsw11711 0.0 103710
06:00+4w11742 0.0 103710
09:00+7sw11643 0.0 1037164
12:00+11ssw22525 0.0 1037787
15:00+12sw22485 0.0 10361081
18:00+10ssw11602 0.0 103610
21:00+8ssw22670 0.0 103610